Regional Weather Roundup
Issued by NWS Raleigh/Durham, NC

Home | Current Version | Previous Version | Text Only | Print | Product List | Glossary On
Versions: 1 2 3 4 5 6 7 8 9 10 11 12 13 14 15 16 17 18 19 20 21 22 23 24 25 26 27 28 29 30 31 32 33 34 35 36 37 38 39 40 41 42 43 44 45 46 47 48 49 50
000
ASUS42 KRAH 040210
RWRRAH
NORTH CAROLINA WEATHER ROUNDUP
NATIONAL WEATHER SERVICE RALEIGH NC
1000 PM EDT MON AUG 03 2015

NOTE: "FAIR" INDICATES FEW OR NO CLOUDS BELOW 12,000 FEET WITH NO
SIGNIFICANT WEATHER AND/OR OBSTRUCTIONS TO VISIBILITY.

NCZ001-053-055-056-065-067-040300-
WESTERN NORTH CAROLINA

CITY           SKY/WX    TMP DP  RH WIND       PRES   REMARKS
ASHEVILLE      CLEAR     76  57  51 N6        30.02R
JEFFERSON      CLEAR     73  48  41 W6        30.08R
MORGANTON      CLEAR     80  61  52 N5        29.99S
HICKORY        CLEAR     81  62  52 CALM      29.94R
RUTHERFORDTON  CLEAR     80  64  57 CALM      29.95R
MOUNT AIRY     CLEAR     77  64  65 CALM      29.96S
BOONE          CLEAR     66  55  68 NW3       30.10R
$$

NCZ021-022-025-041-071-084-088-040300-
CENTRAL NORTH CAROLINA

CITY           SKY/WX    TMP DP  RH WIND       PRES   REMARKS
CHARLOTTE      CLEAR     83  68  60 S9        29.94R
GREENSBORO     PTCLDY    81  63  54 S3        29.93R
WINSTON-SALEM  CLEAR     79  66  64 CALM      29.94S
RALEIGH-DURHAM PTCLDY    83  69  62 S10       29.93R
FORT BRAGG     CLEAR     82  72  69 S9        29.94R
FAYETTEVILLE   CLEAR     80  71  74 S6        29.95R
BURLINGTON     CLEAR     76  67  73 CALM      29.92R
LAURINBURG     CLEAR     78  70  76 S5        29.96R
$$

NCZ011-015-027-028-043-044-047-080-103-040300-
NORTHEASTERN NORTH CAROLINA

CITY           SKY/WX    TMP DP  RH WIND       PRES   REMARKS
ROCKY MT-WILSO CLEAR     82  72  71 S8        29.94R
GREENVILLE     CLEAR     79  72  78 SW10      29.97R
WASHINGTON     PTCLDY    76  71  83 S6        29.97R
ELIZABETH CITY PTCLDY    78  73  84 S12       29.94R
MANTEO         MOCLDY    78  73  84 SW18      29.96R
CAPE HATTERAS  MOCLDY    79  73  82 S12       29.99R
$$

NCZ078-087-090-091-093-098-101-040300-
SOUTHEASTERN NORTH CAROLINA

CITY           SKY/WX    TMP DP  RH WIND       PRES   REMARKS
LUMBERTON      CLEAR     78  73  84 SE5       29.95R
GOLDSBORO      CLEAR     79  73  82 VRB5      29.94R
KINSTON        CLEAR     77  72  83 S6        29.97R
KENANSVILLE    MOCLDY   N/A N/A N/A CALM      29.98R
NEW BERN       PTCLDY    76  73  91 S5        29.98R
CHERRY POINT   MOCLDY    78  74  87 S5        29.99R
BEAUFORT       MOCLDY    79  74  84 S10       29.98R
JACKSONVILLE   MOCLDY    77  74  90 S6        29.97R
WILMINGTON     MOCLDY    77  75  93 S3        29.97R
$$



USA.gov is the U.S. government's official web portal to all federal, state and local government web resources and services.